When you browse on this site, cookies collect data to enhance your experience and personalize the content and advertising you see.
Visit our Privacy Policy to learn more. By continuing to use the site, you agree to this use of cookies and data.
  • In United Kingdom
  • List of Countries
  • For 7 days
  • Water Temperature
  • Satellite Maps
  • Weather Map
  • Weather Widgets
  • user-avatar
    Login

    Hourly Weather Abergele

    Today, 21 May, Tuesday

    Time Temperature Precipitation Wind Pressure Humidity
    00:00 +7°C° 0 mm 2 mps 755 mmHg 93%
    01:00 +7°C° 0 mm 2 mps 756 mmHg 94%
    02:00 +7°C° 0 mm 3 mps 756 mmHg 95%
    03:00 +7°C° 0 mm 3 mps 756 mmHg 95%
    04:00 +8°C° 0 mm 3 mps 756 mmHg 94%
    05:00 +9°C° 0 mm 3 mps 756 mmHg 92%
    06:00 +9°C° 0 mm 3 mps 756 mmHg 91%
    07:00 +10°C° 0 mm 3 mps 756 mmHg 84%
    08:00 +12°C° 0 mm 4 mps 757 mmHg 77%
    09:00 +13°C° 0 mm 4 mps 757 mmHg 70%
    10:00 +13°C° 0 mm 4 mps 757 mmHg 67%
    11:00 +14°C° 0 mm 4 mps 757 mmHg 63%
    12:00 +14°C° 0 mm 4 mps 757 mmHg 59%
    13:00 +14°C° 0 mm 4 mps 757 mmHg 58%
    14:00 +14°C° 0 mm 4 mps 757 mmHg 56%
    15:00 +14°C° 0 mm 4 mps 757 mmHg 55%
    16:00 +14°C° 0 mm 4 mps 757 mmHg 57%
    17:00 +13°C° 0 mm 3 mps 757 mmHg 59%
    18:00 +13°C° 0 mm 3 mps 757 mmHg 61%
    19:00 +11°C° 0 mm 3 mps 757 mmHg 67%
    20:00 +9°C° 0 mm 2 mps 757 mmHg 74%
    21:00 +8°C° 0 mm 2 mps 758 mmHg 81%
    22:00 +7°C° 0 mm 2 mps 758 mmHg 83%
    23:00 +7°C° 0 mm 2 mps 758 mmHg 84%

    Tomorrow, 22 May, Wednesday

    Time Temperature Precipitation Wind Pressure Humidity
    00:00 +7°C° 0 mm 2 mps 758 mmHg 86%
    01:00 +7°C° 0 mm 2 mps 758 mmHg 85%
    02:00 +8°C° 0 mm 1 mps 758 mmHg 85%
    03:00 +8°C° 0 mm 1 mps 758 mmHg 84%
    04:00 +9°C° 0 mm 1 mps 758 mmHg 83%
    05:00 +10°C° 0 mm 1 mps 758 mmHg 83%
    06:00 +10°C° 0 mm 1 mps 758 mmHg 82%
    07:00 +11°C° 0 mm 1 mps 758 mmHg 80%
    08:00 +12°C° 0 mm 1 mps 758 mmHg 77%
    09:00 +12°C° 0 mm 0 mps 758 mmHg 75%
    10:00 +14°C° 0 mm 1 mps 757 mmHg 68%
    11:00 +16°C° 0 mm 1 mps 757 mmHg 61%
    12:00 +17°C° 0 mm 2 mps 757 mmHg 55%
    13:00 +17°C° 0 mm 2 mps 757 mmHg 55%
    14:00 +17°C° 0 mm 3 mps 757 mmHg 55%
    15:00 +17°C° 0 mm 3 mps 757 mmHg 55%
    16:00 +16°C° 0 mm 3 mps 757 mmHg 59%
    17:00 +16°C° 0 mm 2 mps 756 mmHg 63%
    18:00 +15°C° 0 mm 2 mps 756 mmHg 66%
    19:00 +13°C° 0 mm 2 mps 756 mmHg 73%
    20:00 +10°C° 0 mm 2 mps 757 mmHg 80%
    21:00 +9°C° 0 mm 1 mps 757 mmHg 87%
    22:00 +8°C° 0 mm 2 mps 757 mmHg 83%
    23:00 +8°C° 0 mm 2 mps 757 mmHg 79%

    Day after tomorrow, 23 May, Thursday

    Time Temperature Precipitation Wind Pressure Humidity
    00:00 +8°C° 0 mm 2 mps 756 mmHg 75%
    01:00 +7°C° 0 mm 2 mps 756 mmHg 73%
    02:00 +7°C° 0 mm 2 mps 756 mmHg 71%
    03:00 +7°C° 0 mm 3 mps 756 mmHg 70%
    04:00 +8°C° 0 mm 2 mps 756 mmHg 70%
    05:00 +9°C° 0 mm 2 mps 756 mmHg 70%
    06:00 +9°C° 0 mm 2 mps 756 mmHg 71%
    07:00 +12°C° 0 mm 2 mps 756 mmHg 65%
    08:00 +14°C° 0 mm 2 mps 756 mmHg 60%
    09:00 +16°C° 0 mm 2 mps 756 mmHg 54%
    10:00 +16°C° 0 mm 2 mps 756 mmHg 53%
    11:00 +17°C° 0 mm 3 mps 756 mmHg 52%
    12:00 +17°C° 0 mm 3 mps 756 mmHg 51%
    13:00 +17°C° 0 mm 3 mps 756 mmHg 52%
    14:00 +17°C° 0 mm 3 mps 756 mmHg 53%
    15:00 +17°C° 0 mm 4 mps 756 mmHg 54%
    16:00 +17°C° 0 mm 3 mps 756 mmHg 57%
    17:00 +16°C° 0 mm 3 mps 756 mmHg 60%
    18:00 +16°C° 0 mm 3 mps 756 mmHg 63%
    19:00 +13°C° 0 mm 3 mps 756 mmHg 70%
    20:00 +11°C° 0 mm 3 mps 756 mmHg 77%
    21:00 +9°C° 0 mm 3 mps 756 mmHg 84%
    22:00 +9°C° 0 mm 3 mps 756 mmHg 85%
    23:00 +9°C° 0 mm 3 mps 756 mmHg 86%

    24 May, Friday

    Time Temperature Precipitation Wind Pressure Humidity
    00:00 +8°C° 0 mm 4 mps 756 mmHg 87%
    01:00 +8°C° 0 mm 4 mps 756 mmHg 90%
    02:00 +8°C° 0 mm 4 mps 757 mmHg 93%
    03:00 +10°C° 0 mm 4 mps 757 mmHg 96%
    04:00 +10°C° 0 mm 4 mps 756 mmHg 95%
    05:00 +11°C° 0 mm 4 mps 756 mmHg 94%
    06:00 +12°C° 0 mm 4 mps 756 mmHg 92%
    07:00 +13°C° 0 mm 3 mps 756 mmHg 89%
    08:00 +13°C° 0 mm 3 mps 757 mmHg 86%
    09:00 +14°C° 0 mm 3 mps 757 mmHg 83%
    10:00 +16°C° 0 mm 3 mps 757 mmHg 79%
    11:00 +17°C° 0 mm 4 mps 757 mmHg 74%
    12:00 +17°C° 0 mm 4 mps 757 mmHg 70%
    13:00 +17°C° 0.1 mm 4 mps 757 mmHg 71%
    14:00 +17°C° 0.1 mm 4 mps 757 mmHg 71%
    15:00 +17°C° 0.1 mm 4 mps 756 mmHg 72%
    16:00 +17°C° 0.1 mm 4 mps 756 mmHg 76%
    17:00 +15°C° 0.1 mm 4 mps 756 mmHg 79%
    18:00 +15°C° 0.1 mm 4 mps 756 mmHg 83%
    19:00 +14°C° 0 mm 3 mps 757 mmHg 88%
    20:00 +12°C° 0 mm 3 mps 757 mmHg 92%
    21:00 +12°C° 0 mm 2 mps 757 mmHg 97%
    22:00 +12°C° 0 mm 2 mps 757 mmHg 97%
    23:00 +10°C° 0 mm 2 mps 758 mmHg 97%

    25 May, Saturday

    Time Temperature Precipitation Wind Pressure Humidity
    00:00 +10°C° 0 mm 2 mps 758 mmHg 97%
    01:00 +10°C° 0 mm 2 mps 757 mmHg 97%
    02:00 +10°C° 0 mm 2 mps 757 mmHg 96%
    03:00 +10°C° 0 mm 2 mps 757 mmHg 96%
    04:00 +12°C° 0 mm 2 mps 757 mmHg 94%
    05:00 +12°C° 0 mm 1 mps 757 mmHg 93%
    06:00 +13°C° 0 mm 1 mps 757 mmHg 91%
    07:00 +14°C° 0 mm 2 mps 757 mmHg 87%
    08:00 +15°C° 0 mm 2 mps 757 mmHg 82%
    09:00 +17°C° 0 mm 2 mps 757 mmHg 78%
    10:00 +16°C° 0.1 mm 3 mps 757 mmHg 80%
    11:00 +16°C° 0.1 mm 3 mps 757 mmHg 82%
    12:00 +16°C° 0.1 mm 3 mps 757 mmHg 83%
    13:00 +15°C° 0.1 mm 4 mps 756 mmHg 84%
    14:00 +15°C° 0.1 mm 4 mps 756 mmHg 84%
    15:00 +15°C° 0.1 mm 4 mps 756 mmHg 85%
    16:00 +15°C° 0.2 mm 4 mps 756 mmHg 87%
    17:00 +15°C° 0.2 mm 4 mps 755 mmHg 90%
    18:00 +14°C° 0.2 mm 4 mps 755 mmHg 92%
    19:00 +14°C° 0.1 mm 4 mps 755 mmHg 94%
    20:00 +14°C° 0.1 mm 5 mps 756 mmHg 95%
    21:00 +14°C° 0.1 mm 5 mps 756 mmHg 96%
    22:00 +14°C° 0 mm 5 mps 756 mmHg 96%
    23:00 +14°C° 0 mm 5 mps 756 mmHg 96%

    26 May, Sunday

    Time Temperature Precipitation Wind Pressure Humidity
    00:00 +14°C° 0 mm 5 mps 756 mmHg 96%
    01:00 +14°C° 0 mm 4 mps 755 mmHg 96%
    02:00 +14°C° 0 mm 4 mps 755 mmHg 96%
    03:00 +13°C° 0 mm 4 mps 755 mmHg 96%
    04:00 +13°C° 0 mm 4 mps 755 mmHg 96%
    05:00 +14°C° 0 mm 4 mps 754 mmHg 95%
    06:00 +14°C° 0 mm 4 mps 754 mmHg 94%
    07:00 +15°C° 0 mm 4 mps 754 mmHg 89%
    08:00 +17°C° 0 mm 4 mps 754 mmHg 84%
    09:00 +18°C° 0 mm 4 mps 754 mmHg 80%
    10:00 +17°C° 0 mm 5 mps 753 mmHg 77%
    11:00 +19°C° 0 mm 6 mps 753 mmHg 75%
    12:00 +18°C° 0 mm 7 mps 753 mmHg 73%
    13:00 +18°C° 0 mm 7 mps 752 mmHg 74%
    14:00 +18°C° 0 mm 7 mps 752 mmHg 75%
    15:00 +18°C° 0 mm 7 mps 751 mmHg 76%
    16:00 +16°C° 0.4 mm 6 mps 751 mmHg 82%
    17:00 +15°C° 0.4 mm 6 mps 751 mmHg 89%
    18:00 +13°C° 0.4 mm 5 mps 750 mmHg 95%
    19:00 +13°C° 0.1 mm 5 mps 750 mmHg 96%
    20:00 +13°C° 0.1 mm 5 mps 751 mmHg 96%
    21:00 +13°C° 0.1 mm 5 mps 751 mmHg 96%
    22:00 +13°C° 0.1 mm 4 mps 751 mmHg 96%
    23:00 +13°C° 0.1 mm 4 mps 751 mmHg 97%
    Show more